Time,TemperatureF,DewpointF,PressureIn,WindDirection,WindDirectionDegrees,WindSpeedMPH,WindSpeedGustMPH,Humidity,HourlyPrecipIn,Conditions,Clouds,dailyrainin,SolarRadiationWatts/m^2,SoftwareType,DateUTC
2013-11-01 00:03:00,45.0,44.0,-100.00,North,2,7.0,16.0,96,0.00,,,-99.99,0.000000,,2013-11-01 05:03:00,
2013-11-01 00:10:00,43.0,42.0,-100.00,NNW,348,8.0,17.0,95,0.01,,,-99.99,0.000000,,2013-11-01 05:10:00,
2013-11-01 00:42:00,43.0,42.0,-100.00,NNW,348,8.0,17.0,95,0.01,,,-99.99,0.000000,,2013-11-01 05:42:00,
2013-11-01 00:53:00,43.0,42.0,-100.00,NNW,348,8.0,17.0,95,0.01,,,-99.99,0.000000,,2013-11-01 05:53:00,
2013-11-01 01:02:00,43.0,42.0,-100.00,NNW,348,8.0,17.0,95,0.01,,,-99.99,0.000000,,2013-11-01 06:02:00,
2013-11-01 01:10:00,43.0,42.0,-100.00,NNW,346,7.0,13.0,95,0.00,,,-99.99,0.000000,,2013-11-01 06:10:00,
2013-11-01 01:42:00,43.0,42.0,-100.00,NNW,346,7.0,13.0,95,0.00,,,-99.99,0.000000,,2013-11-01 06:42:00,
2013-11-01 01:52:00,43.0,42.0,-100.00,NNW,346,7.0,13.0,95,0.00,,,-99.99,0.000000,,2013-11-01 06:52:00,
2013-11-01 02:02:00,43.0,42.0,-100.00,NNW,346,7.0,13.0,95,0.00,,,-99.99,0.000000,,2013-11-01 07:02:00,
2013-11-01 02:10:00,42.0,41.0,-100.00,NNW,336,4.0,11.0,97,0.00,,,-99.99,0.000000,,2013-11-01 07:10:00,
2013-11-01 02:42:00,42.0,41.0,-100.00,NNW,336,4.0,11.0,97,0.00,,,-99.99,0.000000,,2013-11-01 07:42:00,
2013-11-01 02:52:00,42.0,41.0,-100.00,NNW,336,4.0,11.0,97,0.00,,,-99.99,0.000000,,2013-11-01 07:52:00,
2013-11-01 03:03:00,42.0,41.0,-100.00,NNW,336,4.0,11.0,97,0.00,,,-99.99,0.000000,,2013-11-01 08:03:00,
2013-11-01 03:10:00,42.0,41.0,-100.00,NNW,336,6.0,12.0,98,0.00,,,-99.99,0.000000,,2013-11-01 08:10:00,
2013-11-01 03:42:00,42.0,41.0,-100.00,NNW,336,6.0,12.0,98,0.00,,,-99.99,0.000000,,2013-11-01 08:42:00,
2013-11-01 03:52:00,42.0,41.0,-100.00,NNW,336,6.0,12.0,98,0.00,,,-99.99,0.000000,,2013-11-01 08:52:00,
2013-11-01 04:02:00,42.0,41.0,-100.00,NNW,336,6.0,12.0,98,0.00,,,-99.99,0.000000,,2013-11-01 09:02:00,
2013-11-01 04:10:00,42.0,41.0,-100.00,NNW,330,6.0,16.0,97,0.00,,,-99.99,0.000000,,2013-11-01 09:10:00,
2013-11-01 04:43:00,42.0,41.0,-100.00,NNW,330,6.0,16.0,97,0.00,,,-99.99,0.000000,,2013-11-01 09:43:00,
2013-11-01 04:53:00,42.0,41.0,-100.00,NNW,330,6.0,16.0,97,0.00,,,-99.99,0.000000,,2013-11-01 09:53:00,
2013-11-01 05:03:00,42.0,41.0,-100.00,NNW,330,6.0,16.0,97,0.00,,,-99.99,0.000000,,2013-11-01 10:03:00,
2013-11-01 05:10:00,41.0,40.0,-100.00,NW,324,4.0,13.0,97,0.00,,,-99.99,0.000000,,2013-11-01 10:10:00,
2013-11-01 05:43:00,41.0,40.0,-100.00,NW,324,4.0,13.0,97,0.00,,,-99.99,0.000000,,2013-11-01 10:43:00,
2013-11-01 05:53:00,41.0,40.0,-100.00,NW,324,4.0,13.0,97,0.00,,,-99.99,0.000000,,2013-11-01 10:53:00,
2013-11-01 06:02:00,41.0,40.0,-100.00,NW,324,4.0,13.0,97,0.00,,,-99.99,0.000000,,2013-11-01 11:02:00,
2013-11-01 06:10:00,41.0,40.0,-100.00,NNW,329,6.0,13.0,97,0.01,,,-99.99,0.000000,,2013-11-01 11:10:00,
2013-11-01 06:42:00,41.0,40.0,-100.00,NNW,329,6.0,13.0,97,0.01,,,-99.99,0.000000,,2013-11-01 11:42:00,
2013-11-01 06:52:00,41.0,40.0,-100.00,NNW,329,6.0,13.0,97,0.01,,,-99.99,0.000000,,2013-11-01 11:52:00,
2013-11-01 07:02:00,41.0,40.0,-100.00,NNW,329,6.0,13.0,97,0.01,,,-99.99,0.000000,,2013-11-01 12:02:00,
2013-11-01 07:10:00,41.0,40.0,-100.00,NW,320,5.0,12.0,97,0.00,,,-99.99,0.000000,,2013-11-01 12:10:00,
2013-11-01 07:42:00,41.0,40.0,-100.00,NW,320,5.0,12.0,97,0.00,,,-99.99,0.000000,,2013-11-01 12:42:00,
2013-11-01 07:52:00,41.0,40.0,-100.00,NW,320,5.0,12.0,97,0.00,,,-99.99,0.000000,,2013-11-01 12:52:00,
2013-11-01 08:02:00,41.0,40.0,-100.00,NW,320,5.0,12.0,97,0.00,,,-99.99,0.000000,,2013-11-01 13:02:00,
2013-11-01 08:10:00,40.0,39.0,-100.00,NNW,330,4.0,12.0,98,0.01,,,-99.99,1.000000,,2013-11-01 13:10:00,
2013-11-01 08:42:00,40.0,39.0,-100.00,NNW,330,4.0,12.0,98,0.01,,,-99.99,1.000000,,2013-11-01 13:42:00,
2013-11-01 08:52:00,40.0,39.0,-100.00,NNW,330,4.0,12.0,98,0.01,,,-99.99,1.000000,,2013-11-01 13:52:00,
2013-11-01 09:02:00,40.0,39.0,-100.00,NNW,330,4.0,12.0,98,0.01,,,-99.99,1.000000,,2013-11-01 14:02:00,
2013-11-01 09:10:00,40.0,39.0,-100.00,NW,319,4.0,11.0,98,0.00,,,-99.99,6.000000,,2013-11-01 14:10:00,
2013-11-01 09:42:00,40.0,39.0,-100.00,NW,319,4.0,11.0,98,0.00,,,-99.99,6.000000,,2013-11-01 14:42:00,
2013-11-01 09:52:00,40.0,39.0,-100.00,NW,319,4.0,11.0,98,0.00,,,-99.99,6.000000,,2013-11-01 14:52:00,
2013-11-01 10:02:00,40.0,39.0,-100.00,NW,319,4.0,11.0,98,0.00,,,-99.99,6.000000,,2013-11-01 15:02:00,
2013-11-01 10:10:00,40.0,39.0,-100.00,NW,324,4.0,12.0,96,0.01,,,0.10,18.000000,,2013-11-01 15:10:00,
2013-11-01 10:44:00,40.0,39.0,-100.00,NW,324,4.0,12.0,96,0.01,,,0.10,18.000000,,2013-11-01 15:44:00,
2013-11-01 10:54:00,40.0,39.0,-100.00,NW,324,4.0,12.0,96,0.01,,,0.10,18.000000,,2013-11-01 15:54:00,
2013-11-01 11:04:00,40.0,39.0,-100.00,NW,324,4.0,12.0,96,0.01,,,0.10,18.000000,,2013-11-01 16:04:00,
2013-11-01 11:10:00,40.0,39.0,-100.00,NNW,343,4.0,9.0,95,0.00,,,0.09,32.000000,,2013-11-01 16:10:00,
2013-11-01 11:43:00,40.0,39.0,-100.00,NNW,343,4.0,9.0,95,0.00,,,0.09,32.000000,,2013-11-01 16:43:00,
2013-11-01 11:53:00,40.0,39.0,-100.00,NNW,343,4.0,9.0,95,0.00,,,0.09,32.000000,,2013-11-01 16:53:00,
2013-11-01 12:02:00,40.0,39.0,-100.00,NNW,343,4.0,9.0,95,0.00,,,0.09,32.000000,,2013-11-01 17:02:00,
2013-11-01 12:10:00,40.0,38.0,-100.00,NNW,334,4.0,9.0,91,0.00,,,0.08,50.000000,,2013-11-01 17:10:00,
2013-11-01 12:43:00,40.0,38.0,-100.00,NNW,334,4.0,9.0,91,0.00,,,0.08,50.000000,,2013-11-01 17:43:00,
2013-11-01 12:52:00,40.0,38.0,-100.00,NNW,334,4.0,9.0,91,0.00,,,0.08,50.000000,,2013-11-01 17:52:00,
2013-11-01 13:01:00,40.0,38.0,-100.00,NNW,334,4.0,9.0,91,0.00,,,0.08,50.000000,,2013-11-01 18:01:00,
2013-11-01 13:10:00,40.0,39.0,-100.00,NNW,335,4.0,9.0,95,0.00,,,0.08,48.000000,,2013-11-01 18:10:00,
2013-11-01 13:42:00,40.0,39.0,-100.00,NNW,335,4.0,9.0,95,0.00,,,0.08,48.000000,,2013-11-01 18:42:00,
2013-11-01 13:52:00,40.0,39.0,-100.00,NNW,335,4.0,9.0,95,0.00,,,0.08,48.000000,,2013-11-01 18:52:00,
2013-11-01 14:02:00,40.0,39.0,-100.00,NNW,335,4.0,9.0,95,0.00,,,0.08,48.000000,,2013-11-01 19:02:00,
2013-11-01 14:10:00,40.0,39.0,-100.00,NW,325,3.0,10.0,95,0.01,,,0.09,60.000000,,2013-11-01 19:10:00,
2013-11-01 14:42:00,40.0,39.0,-100.00,NW,325,3.0,10.0,95,0.01,,,0.09,60.000000,,2013-11-01 19:42:00,
2013-11-01 14:52:00,40.0,39.0,-100.00,NW,325,3.0,10.0,95,0.01,,,0.09,60.000000,,2013-11-01 19:52:00,
2013-11-01 15:02:00,40.0,39.0,-100.00,NW,325,3.0,10.0,95,0.01,,,0.09,60.000000,,2013-11-01 20:02:00,
2013-11-01 15:10:00,39.0,38.0,-100.00,NW,323,2.0,9.0,95,0.01,,,0.10,36.000000,,2013-11-01 20:10:00,
2013-11-01 15:42:00,39.0,38.0,-100.00,NW,323,2.0,9.0,95,0.01,,,0.10,36.000000,,2013-11-01 20:42:00,
2013-11-01 15:52:00,39.0,38.0,-100.00,NW,323,2.0,9.0,95,0.01,,,0.10,36.000000,,2013-11-01 20:52:00,
2013-11-01 16:01:00,39.0,38.0,-100.00,NW,323,2.0,9.0,95,0.01,,,0.10,36.000000,,2013-11-01 21:01:00,
2013-11-01 16:10:00,39.0,38.0,-100.00,NNW,339,2.0,7.0,95,0.01,,,0.09,28.000000,,2013-11-01 21:10:00,
2013-11-01 16:44:00,39.0,38.0,-100.00,NNW,339,2.0,7.0,95,0.01,,,0.09,28.000000,,2013-11-01 21:44:00,
2013-11-01 16:55:00,39.0,38.0,-100.00,NNW,339,2.0,7.0,95,0.01,,,0.09,28.000000,,2013-11-01 21:55:00,
2013-11-01 17:03:00,39.0,38.0,-100.00,NNW,339,2.0,7.0,95,0.01,,,0.09,28.000000,,2013-11-01 22:03:00,
2013-11-01 17:10:00,39.0,38.0,-100.00,NW,316,2.0,6.0,96,0.00,,,0.08,16.000000,,2013-11-01 22:10:00,
2013-11-01 17:42:00,39.0,38.0,-100.00,NW,316,2.0,6.0,96,0.00,,,0.08,16.000000,,2013-11-01 22:42:00,
2013-11-01 17:53:00,39.0,38.0,-100.00,NW,316,2.0,6.0,96,0.00,,,0.08,16.000000,,2013-11-01 22:53:00,
2013-11-01 18:03:00,39.0,38.0,-100.00,NW,316,2.0,6.0,96,0.00,,,0.08,16.000000,,2013-11-01 23:03:00,
2013-11-01 18:10:00,39.0,38.0,-100.00,NW,322,3.0,6.0,96,0.00,,,0.08,2.000000,,2013-11-01 23:10:00,
2013-11-01 18:42:00,39.0,38.0,-100.00,NW,322,3.0,6.0,96,0.00,,,0.08,2.000000,,2013-11-01 23:42:00,
2013-11-01 18:53:00,39.0,38.0,-100.00,NW,322,3.0,6.0,96,0.00,,,0.08,2.000000,,2013-11-01 23:53:00,
2013-11-01 19:02:00,39.0,38.0,-100.00,NW,322,3.0,6.0,96,0.00,,,0.08,2.000000,,2013-11-02 00:02:00,
2013-11-01 19:10:00,39.0,38.0,-100.00,NNW,341,5.0,10.0,96,0.02,,,0.10,0.000000,,2013-11-02 00:10:00,
2013-11-01 19:42:00,39.0,38.0,-100.00,NNW,341,5.0,10.0,96,0.02,,,0.10,0.000000,,2013-11-02 00:42:00,
2013-11-01 19:52:00,39.0,38.0,-100.00,NNW,341,5.0,10.0,96,0.02,,,0.10,0.000000,,2013-11-02 00:52:00,
2013-11-01 20:02:00,39.0,38.0,-100.00,NNW,341,5.0,10.0,96,0.02,,,0.10,0.000000,,2013-11-02 01:02:00,
2013-11-01 20:10:00,38.0,37.0,-100.00,NNW,343,4.0,8.0,97,0.00,,,0.09,0.000000,,2013-11-02 01:10:00,
2013-11-01 20:42:00,38.0,37.0,-100.00,NNW,343,4.0,8.0,97,0.00,,,0.09,0.000000,,2013-11-02 01:42:00,
2013-11-01 20:52:00,38.0,37.0,-100.00,NNW,343,4.0,8.0,97,0.00,,,0.09,0.000000,,2013-11-02 01:52:00,
2013-11-01 21:02:00,38.0,37.0,-100.00,NNW,343,4.0,8.0,97,0.00,,,0.09,0.000000,,2013-11-02 02:02:00,
2013-11-01 21:10:00,38.0,37.0,-100.00,North,350,3.0,8.0,97,0.01,,,0.10,0.000000,,2013-11-02 02:10:00,
2013-11-01 21:42:00,38.0,37.0,-100.00,North,350,3.0,8.0,97,0.01,,,0.10,0.000000,,2013-11-02 02:42:00,
2013-11-01 21:53:00,38.0,37.0,-100.00,North,350,3.0,8.0,97,0.01,,,0.10,0.000000,,2013-11-02 02:53:00,
2013-11-01 22:02:00,38.0,37.0,-100.00,North,350,3.0,8.0,97,0.01,,,0.10,0.000000,,2013-11-02 03:02:00,
2013-11-01 22:10:00,37.0,36.0,-100.00,NNW,344,3.0,10.0,97,0.00,,,0.10,0.000000,,2013-11-02 03:10:00,
2013-11-01 22:44:00,37.0,36.0,-100.00,NNW,344,3.0,10.0,97,0.00,,,0.10,0.000000,,2013-11-02 03:44:00,
2013-11-01 22:54:00,37.0,36.0,-100.00,NNW,344,3.0,10.0,97,0.00,,,0.10,0.000000,,2013-11-02 03:54:00,
2013-11-01 23:04:00,37.0,36.0,-100.00,NNW,344,3.0,10.0,97,0.00,,,0.10,0.000000,,2013-11-02 04:04:00,
2013-11-01 23:10:00,37.0,36.0,-100.00,North,349,2.0,6.0,97,0.00,,,0.10,0.000000,,2013-11-02 04:10:00,
2013-11-01 23:44:00,37.0,36.0,-100.00,North,349,2.0,6.0,97,0.00,,,0.10,0.000000,,2013-11-02 04:44:00,
2013-11-01 23:54:00,37.0,36.0,-100.00,North,349,2.0,6.0,97,0.00,,,0.10,0.000000,,2013-11-02 04:54:00,